Погода в Порт-Матурин

Маврикий     19°40′50″S   63°25′19″E
темп.,
°C
ветер,
м/с
пор.,
м/с
влажн.,
%
обл.,
%
осадки,
мм/ч
давл.,
гПа
погр.,
м
11 апреля, вс
вс1101:00+27в9107855 3.4 1015872
04:00+26в9107826 4.4 1015930
07:00+26в10107768 1.1 1017997
10:00+27в10117520 1.8 10171067
13:00+27в10107224 0.1 10151122
16:00+27в997186 0.1 10151185
19:00+27вюв897292 0.0 10171235
22:00+28в8868100 0.1 10181302
12 апреля, пн
пн1201:00+27в777692 0.1 1016946
04:00+27в777634 0.1 1015907
07:00+27в77756 0.1 1016940
10:00+27в877737 0.3 1017916
13:00+27в6673100 0.1 1015923
16:00+27в877697 0.1 1015867
19:00+27в887497 0.0 1016976
22:00+27в7771100 0.0 10171008
13 апреля, вт
вт1301:00+26вюв667052 0.0 10161003
04:00+26вюв66685 0.0 10151080
07:00+26вюв676722 0.0 1016968
10:00+27вюв67709 0.0 10171025
13:00+27вюв66695 0.0 1015960
16:00+27вюв55718 0.0 1014937
19:00+26вюв667545 0.1 1016918
22:00+27вюв667454 0.3 1017916
14 апреля, ср
ср1401:00+27в777249 0.0 10151056
04:00+26вюв887464 1.3 1015976
07:00+27вюв897020 0.0 10161114
10:00+27вюв887248 0.0 10161117
13:00+27вюв8976100 0.1 1014966
16:00+27вюв897598 0.6 1014985
19:00+27вюв9107761 0.3 1016928
22:00+27в997684 0.6 1016977
15 апреля, чт
чт1501:00+27в887716 0.8 1015920
04:00+26в898019 1.7 1014888
07:00+26в997962 0.6 1015895
10:00+27в897612 1.3 1015942
13:00+27всв9107197 1.1 10131146
16:00+27всв897266 1.1 10131160
19:00+27всв897895 0.1 1014872
22:00+27всв8972100 0.3 10151169